[[{"header":{"parameterUnit":"m.s-1","parameterCategory":1,"la1":30.2991,"la2":30.254,"lo1":-89.0895,"lo2":-89.0444,"dy":0.0017,"dx":0.0017,"nx":28,"ny":28,"refTime":"2023-10-21T03:00:00:Z","depth":0,"parameterNumber":2,"parameterNumberName":"U-component_of_WINDS"},"data":[0,0,0,0,0,0,0,0,0,0,0,0,0,0,0,0,0,0,0,0,0,0,0,0,0,0,0,0,0,0,0,0,0,0,0,0,0,0,0,0,0,0,0,0,0,0,0,0,0,0,0,0,0,0,0,0,0,0,0.4322,0.4323,0,0.4406,0.4407,0.4408,0.4446,0.4446,0.4446,0.4446,0.4537,0.4539,0.4542,0,0,0,0,0,0,0,0,0,0,0,0,0,0.4198,0.42,0.4322,0.4323,0.4324,0.4406,0.4407,0.4408,0.4446,0.4446,0.4446,0.4446,0.4536,0.4539,0.4542,0,0,0,0,0,0,0,0,0,0,0,0,0,0.4264,0.4201,0.4322,0.4353,0.4356,0.4406,0.4407,0.4409,0.4446,0.4446,0.4446,0.4446,0.4535,0.4539,0.4542,0.4569,0,0,0.4554,0.4556,0,0,0,0,0,0,0,0,0.426,0.4269,0.4347,0.4351,0.4355,0.4415,0.4397,0.4463,0.4446,0.4412,0.4446,0.4446,0.4497,0.4504,0.452,0.4573,0.4577,0.4554,0.4557,0.4558,0.4559,0,0,0,0,0,0,0,0.4256,0.4265,0.4355,0.4348,0.4353,0.4364,0.4373,0.441,0.4455,0.4415,0.4418,0.4427,0.4499,0.4516,0.4522,0.4578,0.4554,0.4558,0.456,0.4561,0.4659,0.4659,0,0,0,0,0,0,0.4245,0.4261,0.4353,0.4358,0.4306,0.4366,0.4376,0.4396,0.4454,0.4463,0.4427,0.4429,0.451,0.4518,0.4526,0.4561,0.4558,0.4562,0.4564,0.4658,0.4659,0.4659,0,0,0,0,0,0,0.4242,0.4253,0.4349,0.431,0.4323,0.4368,0.439,0.4398,0.4415,0.4463,0.4472,0.4437,0.451,0.4521,0.4558,0.4565,0.4563,0.4567,0.4658,0.4659,0.4659,0.4632,0,0,0,0,0,0,0.4239,0.4252,0.4261,0.431,0.4325,0.4378,0.4391,0.44,0.4421,0.4424,0.4474,0.4483,0.4511,0.4552,0.4562,0.457,0.457,0.4658,0.4658,0.4659,0.4633,0.4632,0.4631,0,0,0,0,0,0.4234,0.4251,0.4261,0.4272,0.4338,0.4379,0.4387,0.4418,0.4421,0.4432,0.4463,0.4481,0.4562,0.4555,0.4567,0.4577,0.4657,0.4658,0.4659,0.4633,0.4632,0.4631,0,0,0,0,0,0,0.4203,0.4258,0.427,0.4303,0.4336,0.4385,0.4399,0.4416,0.4449,0.4451,0.4489,0.45,0.4534,0.4559,0.455,0.4606,0.4612,0.4615,0.4588,0.4588,0.4587,0.458,0.4573,0,0,0,0,0,0.42,0.4227,0.4274,0.4299,0.4314,0.4354,0.4373,0.4394,0.443,0.4444,0.4478,0.4513,0.4547,0.4569,0.4602,0.4636,0.4649,0.4649,0.4648,0.4647,0.4649,0.467,0.4671,0.4662,0.4662,0.4662,0,0,0.4194,0.4227,0.4242,0.4293,0.4321,0.435,0.4365,0.4395,0.4417,0.4449,0.4486,0.4512,0.4555,0.459,0.4608,0.4612,0.4655,0.4648,0.4647,0.465,0.4671,0.4672,0.4673,0.4662,0.4662,0.4662,0,0,0.4198,0.4225,0.4249,0.4276,0.4318,0.4344,0.4349,0.4396,0.4414,0.4452,0.4477,0.4505,0.4561,0.4591,0.4613,0.4629,0.4647,0.4639,0.4634,0.4654,0.4655,0.4656,0.4662,0.4664,0.4641,0.4641,0.4641,0,0.4185,0.4228,0.4259,0.4288,0.431,0.4339,0.4364,0.439,0.4441,0.4456,0.446,0.4532,0.4563,0.4606,0.461,0.4627,0.4636,0.4633,0.4652,0.4653,0.4655,0.4661,0.4664,0.4639,0.464,0.464,0.464,0,0.4212,0.4241,0.4256,0.4303,0.4327,0.4353,0.439,0.4411,0.443,0.4456,0.4495,0.4532,0.4574,0.4586,0.4605,0.4633,0.4634,0.4644,0.4651,0.4654,0.4661,0.4664,0.4638,0.4638,0.4639,0.4639,0,0,0.4199,0.4262,0.4267,0.4289,0.4337,0.4361,0.439,0.443,0.4447,0.4482,0.4508,0.4555,0.4565,0.4591,0.4614,0.4631,0.4642,0.464,0.4641,0.4639,0.4676,0.4668,0.4671,0.4654,0.4655,0.4655,0.4673,0,0.421,0.426,0.4289,0.4329,0.4358,0.4386,0.4411,0.4444,0.4469,0.4499,0.4527,0.4561,0.4571,0.4586,0.4605,0.4637,0.465,0.4636,0.468,0.4681,0.4669,0.4674,0.4666,0.4681,0.4676,0.4676,0.4676,0,0.4229,0.4261,0.4303,0.4349,0.4362,0.4384,0.4423,0.445,0.4489,0.4506,0.4534,0.4557,0.459,0.4594,0.4641,0.463,0.4651,0.4669,0.467,0.4676,0.4679,0.4681,0.4687,0.4689,0.4681,0.4681,0.468,0,0.4216,0.427,0.4303,0.4321,0.4374,0.4389,0.4413,0.4451,0.4473,0.4508,0.4524,0.4562,0.4584,0.4614,0.4647,0.4646,0.4691,0.4697,0.4708,0.4707,0.4717,0.4716,0.4726,0.4728,0.4728,0.4728,0.4728,0,0.4226,0.4251,0.4298,0.4318,0.4347,0.4381,0.4409,0.4435,0.4469,0.4496,0.4523,0.4548,0.459,0.4621,0.4647,0.4683,0.4692,0.4708,0.4715,0.4706,0.4704,0.472,0.4721,0.4729,0.4729,0.4729,0.4728,0,0.4216,0.4249,0.4286,0.4333,0.4346,0.4366,0.4407,0.4429,0.4455,0.4489,0.4499,0.4542,0.4579,0.4615,0.4665,0.4683,0.4719,0.4728,0.4706,0.471,0.4719,0.4718,0.474,0.4746,0.4743,0.4743,0.4743,0,0.422,0.424,0.4289,0.4309,0.4331,0.4362,0.4384,0.4419,0.4442,0.4488,0.4504,0.4543,0.4576,0.4635,0.4672,0.4711,0.4721,0.4726,0.4727,0.4718,0.4723,0.4721,0.4724,0.4726,0.4726,0.4726,0.4725,0,0.4225,0.424,0.4271,0.4308,0.4334,0.4365,0.4397,0.4412,0.4453,0.4477,0.4515,0.4541,0.4592,0.4631,0.4675,0.4701,0.4721,0.4725,0.473,0.4721,0.4708,0.4716,0.4704,0.4724,0.4724,0.4725,0.4725,0.4725,0.4223,0.4242,0.428,0.4314,0.4342,0.4371,0.4394,0.4423,0.4455,0.4498,0.4517,0.4556,0.4595,0.4655,0.4681,0.4713,0.4718,0.4724,0.4726,0.4727,0.4726,0.4702,0.4721,0.4721,0.4721,0.4721,0.4721,0,0.423,0.4255,0.4286,0.433,0.4357,0.4372,0.4408,0.443,0.4463,0.4498,0.453,0.4574,0.4612,0.4652,0.4693,0.4711,0.4721,0.4721,0.472,0.4726,0.4719,0.4711,0.4712,0.4712,0.4712,0.4712,0.4712,0.4712,0.4236,0.427,0.4289,0.4337,0.4363,0.44,0.442,0.4448,0.4476,0.4524,0.4555,0.458,0.4617,0.4661,0.4697,0.4708,0.4723,0.4719,0.4733,0.4726,0.4726,0.4727,0.472,0.4722,0.4722,0.4738,0.4738,0.4738]},{"header":{"parameterUnit":"m.s-1","parameterCategory":1,"la1":30.2991,"la2":30.254,"lo1":-89.0895,"lo2":-89.0444,"dy":0.0017,"dx":0.0017,"nx":28,"ny":28,"refTime":"2023-10-21T03:00:00:Z","depth":0,"parameterNumber":3,"parameterNumberName":"V-component_of_WINDS"},"data":[0,0,0,0,0,0,0,0,0,0,0,0,0,0,0,0,0,0,0,0,0,0,0,0,0,0,0,0,0,0,0,0,0,0,0,0,0,0,0,0,0,0,0,0,0,0,0,0,0,0,0,0,0,0,0,0,0,0,1.5794,1.5794,0,1.5765,1.5765,1.5764,1.5775,1.5775,1.5776,1.5777,1.5742,1.5741,1.5739,0,0,0,0,0,0,0,0,0,0,0,0,0,1.5854,1.5853,1.5794,1.5794,1.5793,1.5765,1.5765,1.5764,1.5775,1.5775,1.5776,1.5777,1.5743,1.5741,1.5739,0,0,0,0,0,0,0,0,0,0,0,0,0,1.5827,1.5853,1.5794,1.5795,1.5795,1.5765,1.5765,1.5764,1.5774,1.5775,1.5776,1.5777,1.5744,1.5741,1.5739,1.5705,0,0,1.5732,1.5731,0,0,0,0,0,0,0,0,1.5828,1.5825,1.5795,1.5795,1.5795,1.5775,1.5773,1.5744,1.5774,1.5782,1.5777,1.5778,1.5752,1.5749,1.5741,1.5704,1.5702,1.5732,1.573,1.5729,1.5729,0,0,0,0,0,0,0,1.583,1.5826,1.5782,1.5795,1.5795,1.5796,1.5793,1.5768,1.5762,1.5781,1.5782,1.5779,1.5752,1.5744,1.5741,1.5702,1.5732,1.573,1.5728,1.5728,1.5634,1.5633,0,0,0,0,0,0,1.5833,1.5828,1.5783,1.5782,1.5815,1.5794,1.5791,1.578,1.5762,1.576,1.5778,1.5779,1.5747,1.5743,1.5739,1.5698,1.5729,1.5727,1.5726,1.5635,1.5634,1.5633,0,0,0,0,0,0,1.5834,1.5829,1.5785,1.5805,1.5799,1.5792,1.578,1.5779,1.577,1.5759,1.5758,1.5771,1.5748,1.5743,1.5714,1.5697,1.5726,1.5724,1.5636,1.5635,1.5633,1.5616,0,0,0,0,0,0,1.5836,1.5829,1.5817,1.5804,1.5798,1.576,1.5779,1.5778,1.5767,1.5769,1.5752,1.575,1.5748,1.5717,1.5712,1.5695,1.5722,1.5638,1.5636,1.5634,1.5618,1.5614,1.561,0,0,0,0,0,1.5838,1.5813,1.5817,1.5811,1.5783,1.576,1.5756,1.5755,1.5766,1.5753,1.5746,1.5751,1.57,1.5714,1.5708,1.569,1.5639,1.5636,1.5634,1.5619,1.5615,1.561,0,0,0,0,0,0,1.5822,1.5811,1.5815,1.5785,1.5773,1.5761,1.5745,1.575,1.5733,1.5735,1.5733,1.5729,1.57,1.5692,1.5708,1.5656,1.5671,1.5667,1.5662,1.5657,1.5654,1.5656,1.5721,0,0,0,0,0,1.5815,1.5798,1.5789,1.5763,1.5757,1.5752,1.5742,1.5742,1.573,1.5724,1.5715,1.5701,1.5682,1.5669,1.5651,1.5617,1.5613,1.5602,1.5598,1.5595,1.5591,1.5572,1.5567,1.5624,1.5624,1.5624,0,0,1.58,1.5792,1.5781,1.576,1.5751,1.5732,1.5748,1.5727,1.5713,1.5721,1.5693,1.5686,1.567,1.5639,1.5624,1.5631,1.5575,1.5592,1.5589,1.5587,1.5569,1.5563,1.5559,1.5623,1.5623,1.5623,0,0,1.5764,1.5757,1.5734,1.5725,1.5712,1.5709,1.5704,1.5691,1.5687,1.566,1.5665,1.5647,1.5615,1.5603,1.5593,1.5553,1.5557,1.5547,1.5527,1.5509,1.5504,1.55,1.5485,1.548,1.5544,1.5544,1.5544,0,1.5747,1.572,1.5722,1.5701,1.5691,1.5699,1.5676,1.5666,1.5647,1.5639,1.5648,1.5607,1.5597,1.5563,1.5553,1.5545,1.5538,1.5549,1.5505,1.5501,1.5497,1.5483,1.5477,1.5543,1.5543,1.5543,1.5543,0,1.5699,1.5681,1.5664,1.5647,1.5636,1.5614,1.5611,1.5598,1.56,1.5596,1.5567,1.5556,1.5536,1.5528,1.5528,1.5493,1.5498,1.5506,1.552,1.549,1.5477,1.5471,1.5541,1.5541,1.5542,1.5542,0,0,1.5651,1.5636,1.563,1.5622,1.5609,1.5593,1.5572,1.5553,1.5542,1.5529,1.551,1.5483,1.549,1.5478,1.5478,1.5462,1.543,1.5471,1.5471,1.5464,1.539,1.5384,1.5377,1.5433,1.5432,1.5431,1.5391,0,1.5613,1.5576,1.5577,1.5542,1.5525,1.5532,1.5513,1.5502,1.5497,1.5481,1.5475,1.5455,1.5467,1.546,1.5445,1.5437,1.5415,1.544,1.5414,1.5413,1.5417,1.537,1.5364,1.5326,1.5386,1.5385,1.5384,0,1.5563,1.555,1.5514,1.5503,1.5496,1.5479,1.5462,1.5447,1.5434,1.5431,1.5419,1.5421,1.5398,1.5414,1.5381,1.5399,1.5388,1.5383,1.5381,1.5378,1.5396,1.5365,1.5314,1.5308,1.5376,1.5377,1.5377,0,1.5531,1.5504,1.5479,1.5472,1.5459,1.5447,1.544,1.5429,1.5418,1.5403,1.5395,1.5377,1.5367,1.5352,1.5349,1.5361,1.5316,1.5332,1.5312,1.5312,1.5301,1.5302,1.5247,1.5296,1.5296,1.5296,1.5296,0,1.5488,1.5465,1.5464,1.5448,1.5423,1.5424,1.5399,1.5393,1.5383,1.5365,1.537,1.5353,1.5351,1.5333,1.533,1.5303,1.5298,1.5295,1.5294,1.5294,1.5295,1.5286,1.5289,1.5294,1.5295,1.5295,1.5295,0,1.5447,1.5445,1.5418,1.5409,1.5406,1.5387,1.5378,1.5363,1.5359,1.5337,1.5332,1.5326,1.5305,1.5301,1.5276,1.5274,1.5242,1.5244,1.5246,1.5246,1.5227,1.5228,1.5164,1.5156,1.521,1.521,1.5209,0,1.5419,1.5402,1.5391,1.5381,1.5374,1.5357,1.5346,1.5346,1.5335,1.5319,1.5305,1.5286,1.527,1.5236,1.5229,1.521,1.5211,1.519,1.5208,1.5208,1.521,1.5211,1.5209,1.5186,1.5185,1.5185,1.5185,0,1.537,1.537,1.5355,1.534,1.5327,1.5315,1.5303,1.5294,1.5292,1.5279,1.5259,1.5247,1.5222,1.5202,1.5183,1.5175,1.5179,1.5179,1.5173,1.5173,1.5175,1.5173,1.5236,1.518,1.5181,1.5181,1.5181,1.5181,1.5334,1.5319,1.531,1.5293,1.5284,1.5273,1.5259,1.5254,1.5238,1.5219,1.5219,1.5197,1.5184,1.516,1.5151,1.5132,1.5139,1.5131,1.5128,1.5126,1.5124,1.5178,1.5129,1.5129,1.5129,1.5129,1.5129,0,1.5285,1.5279,1.5264,1.5248,1.5234,1.5241,1.5229,1.5216,1.5197,1.5186,1.5171,1.5147,1.5128,1.512,1.51,1.5087,1.5088,1.5082,1.5083,1.5081,1.512,1.5126,1.5081,1.5081,1.5081,1.5081,1.5081,1.5081,1.5257,1.5233,1.5232,1.5203,1.5197,1.5177,1.5169,1.5158,1.5149,1.5124,1.5108,1.5104,1.5093,1.5073,1.5055,1.5053,1.5045,1.5038,1.5036,1.5073,1.5078,1.5082,1.5089,1.5036,1.5036,1.4999,1.4998,1.4998]}]]